Flag for Canada Weather past 2 weeks in Prince Albert, Saskatchewan, Canada

Now
55 °F

More clouds than sun.


Feels Like: 55 °F
Forecast: 46 / 65 °F
Wind: 5 mph from East

Location: Prince Albert

Current Time: Sep 19, 2014 at 10:24:07 AM

Latest Report: Sep 19, 2014 at 10:00 AM


Visibility: 15 mi

Pressure: 29.64 "Hg

Humidity: 94%

Dew point: 54 °F

Location of Prince AlbertLocation

Historic Weather in Prince Albert — Graph

°F

Prince Albert temperature yesterday

Maximum temperature yesterday: 63 °F (at 12:00 PM)
Minimum temperature yesterday: 41 °F (at 12:00 AM)
Average temperature yesterday: 52 °F

Past Weeks' High & Low Weather Summary

 TemperatureHumidityPressure
High70 °F (Sep 7, 12:00 PM)100% (Sep 7, 3:00 AM)30.59 "Hg (Sep 7, 3:00 AM)
Low28 °F (Sep 9, 6:00 AM)36% (Sep 14, 2:00 PM)29.49 "Hg (Sep 18, 3:00 PM)
Average48 °F75%30.07 "Hg
* Reported Sep 4 9:00 AM — Sep 19 9:00 AM, Prince Albert, Weather by CustomWeather, © 2014

Note: Actual official high and low records may vary slightly from our data, if they occured in-between our weather recording intervals... More about our weather records

Advertising

Prince Albert weather history for previous 24 hours

 ConditionsComfort  
Time TempWeatherWind HumidityBarometerVisibility
9:00 AM
Sep 19
54 °FMore clouds than sun.No wind94%29.63 "Hg15 mi
8:00 AM52 °FScattered showers. More clouds than sun.No wind100%29.62 "Hg15 mi
7:00 AM50 °FMostly cloudy.2 mph100%29.59 "Hg15 mi
6:00 AM50 °FScattered showers. Passing clouds.3 mph100%29.59 "Hg15 mi
5:00 AM50 °FPassing clouds.3 mph100%29.58 "Hg15 mi
4:00 AM52 °FOvercast.2 mph94%29.57 "Hg15 mi
3:00 AM52 °FOvercast.3 mph94%29.56 "Hg15 mi
2:00 AM52 °FPassing clouds.5 mph94%29.56 "Hg15 mi
1:00 AM52 °FPartly cloudy.2 mph94%29.54 "Hg15 mi
12:00 AM52 °FPassing clouds.6 mph94%29.55 "Hg15 mi
11:00 PM
Sep 18
54 °FOvercast.3 mph94%29.54 "Hg15 mi
10:00 PM55 °FOvercast.6 mph88%29.53 "Hg15 mi
9:00 PM55 °FOvercast.2 mph88%29.54 "Hg15 mi
8:00 PM57 °FPassing clouds.5 mph82%29.53 "Hg15 mi
7:00 PM59 °FPartly sunny.5 mph77%29.53 "Hg15 mi
6:00 PM61 °FPartly sunny.5 mph77%29.53 "Hg15 mi
5:00 PM61 °FPartly sunny.9 mph77%29.52 "Hg15 mi
4:00 PM63 °FMostly cloudy.5 mph73%29.50 "Hg15 mi
3:00 PM63 °FMostly cloudy.5 mph73%29.49 "Hg15 mi
2:00 PM63 °FMostly cloudy.7 mph73%29.51 "Hg15 mi
1:00 PM63 °FMostly cloudy.5 mph68%29.52 "Hg15 mi
12:00 PM63 °FMostly cloudy.6 mph68%29.53 "Hg15 mi
11:00 AM61 °FPartly sunny.8 mph72%29.54 "Hg15 mi
10:00 AM57 °FMore clouds than sun.9 mph77%29.56 "Hg15 mi
Weather by CustomWeather, © 2014

See weather overviewHow to use our weather pages